{"data":{"norad_id":68049,"intl_designator":"2026-041K","name":"STARLINK-36885","alt_names":[],"object_type":"PAYLOAD","status":"ACTIVE","operator":null,"country":"US","launch_date":"2026-03-02","launch_site_code":"AFETR","launch_vehicle":null,"mission":null,"orbit_class":"UNKNOWN","rcs_meters":null,"size_class":null,"mass_kg":null,"dimensions":null,"purposes":["comms"],"wikipedia_slug":null,"has_3d_model":false,"image_url":null,"decayed_at":null,"tle_current":{"epoch":"2026-09-19T11:30:05.757120Z","epoch_age_seconds":147819,"freshness":"FRESH","line1":"1 68049U 26041K   26262.47923330  .00011884  00000+0  36231-3 0  9998","line2":"2 68049  53.1576 224.4080 0001482 100.4413 259.6756 15.34400310 31133","mean_motion":15.3440031,"eccentricity":0.0001482,"inclination_deg":53.1576,"raan_deg":224.408,"arg_perigee_deg":100.4413,"mean_anomaly_deg":259.6756,"bstar":0.00036231,"rev_number":3113,"period_min":93.84773912096,"perigee_km":461.68850643488,"apogee_km":463.71613120898,"semimajor_km":6840.8393188219,"source":"CELESTRAK","updated_at":"2026-09-20T09:00:43.748720Z"}}}